User: anonymous   Login
Location: El Centro
(32.7920°N, 115.5620°W)
Time: 22:21:23
(UTC-07:00)
Language:

Hamsat - Orbit

View from above orbital plane
View from above orbital plane
View from above satellite
View from above satellite

Ground track
Ground track

The orbit data is extracted from the following two-line orbital elements,

1 28650U 05017B   18174.48421450  .00000229  00000-0  30137-4 0  9994
2 28650  97.6993 142.4122 0023050 345.8957  14.1614 14.88945778711415
Epoch (UTC): 23 June 2018 11:37:16
Eccentricity: 0.0023050
inclination: 97.6993°
perigee height: 585 km
apogee height: 617 km
right ascension of ascending node: 142.4122°
argument of perigee: 345.8957°
revolutions per day: 14.88945778
mean anomaly at epoch: 14.1614°
orbit number at epoch: 71141

The dashed part of the orbit path shows where the satellite is in the earth's shadow,  

DLR